Time,TemperatureF,DewpointF,PressureIn,WindDirection,WindDirectionDegrees,WindSpeedMPH,WindSpeedGustMPH,Humidity,HourlyPrecipIn,Conditions,Clouds,dailyrainin,SolarRadiationWatts/m^2,SoftwareType,DateUTC
2013-02-19 00:02:00,31.0,27.0,-100.00,SE,142,0.0,3.0,86,0.00,,,-99.99,0.000000,,2013-02-19 05:02:00,
2013-02-19 00:13:00,31.0,27.0,-100.00,SE,142,0.0,3.0,86,0.00,,,-99.99,0.000000,,2013-02-19 05:13:00,
2013-02-19 00:43:00,31.0,29.0,-100.00,SSE,160,0.0,1.0,94,0.00,,,-99.99,0.000000,,2013-02-19 05:43:00,
2013-02-19 00:52:00,31.0,29.0,-100.00,SSE,160,0.0,1.0,94,0.00,,,-99.99,0.000000,,2013-02-19 05:52:00,
2013-02-19 01:03:00,31.0,29.0,-100.00,SSE,160,0.0,1.0,94,0.00,,,-99.99,0.000000,,2013-02-19 06:03:00,
2013-02-19 01:12:00,31.0,29.0,-100.00,SSE,160,0.0,1.0,94,0.00,,,-99.99,0.000000,,2013-02-19 06:12:00,
2013-02-19 01:42:00,32.0,32.0,-100.00,SSE,147,0.0,0.0,98,0.00,,,0.00,0.000000,,2013-02-19 06:42:00,
2013-02-19 01:53:00,32.0,32.0,-100.00,SSE,147,0.0,0.0,98,0.00,,,0.00,0.000000,,2013-02-19 06:53:00,
2013-02-19 02:02:00,32.0,32.0,-100.00,SSE,147,0.0,0.0,98,0.00,,,0.00,0.000000,,2013-02-19 07:02:00,
2013-02-19 02:12:00,32.0,32.0,-100.00,SSE,147,0.0,0.0,98,0.00,,,0.00,0.000000,,2013-02-19 07:12:00,
2013-02-19 02:42:00,34.0,34.0,-100.00,ESE,122,0.0,4.0,100,0.00,,,0.00,0.000000,,2013-02-19 07:42:00,
2013-02-19 02:52:00,34.0,34.0,-100.00,ESE,122,0.0,4.0,100,0.00,,,0.00,0.000000,,2013-02-19 07:52:00,
2013-02-19 03:02:00,34.0,34.0,-100.00,ESE,122,0.0,4.0,100,0.00,,,0.00,0.000000,,2013-02-19 08:02:00,
2013-02-19 03:11:00,34.0,34.0,-100.00,ESE,122,0.0,4.0,100,0.00,,,0.00,0.000000,,2013-02-19 08:11:00,
2013-02-19 03:42:00,34.0,34.0,-100.00,SE,141,0.0,4.0,100,0.00,,,0.00,0.000000,,2013-02-19 08:42:00,
2013-02-19 03:52:00,34.0,34.0,-100.00,SE,141,0.0,4.0,100,0.00,,,0.00,0.000000,,2013-02-19 08:52:00,
2013-02-19 04:02:00,34.0,34.0,-100.00,SE,141,0.0,4.0,100,0.00,,,0.00,0.000000,,2013-02-19 09:02:00,
2013-02-19 04:11:00,34.0,34.0,-100.00,SE,141,0.0,4.0,100,0.00,,,0.00,0.000000,,2013-02-19 09:11:00,
2013-02-19 04:42:00,34.0,34.0,-100.00,SE,141,1.0,3.0,100,0.00,,,0.00,0.000000,,2013-02-19 09:42:00,
2013-02-19 04:53:00,34.0,34.0,-100.00,SE,141,1.0,3.0,100,0.00,,,0.00,0.000000,,2013-02-19 09:53:00,
2013-02-19 05:02:00,34.0,34.0,-100.00,SE,141,1.0,3.0,100,0.00,,,0.00,0.000000,,2013-02-19 10:02:00,
2013-02-19 05:11:00,34.0,34.0,-100.00,SE,141,1.0,3.0,100,0.00,,,0.00,0.000000,,2013-02-19 10:11:00,
2013-02-19 05:42:00,35.0,35.0,-100.00,SE,126,0.0,4.0,100,0.00,,,0.00,0.000000,,2013-02-19 10:42:00,
2013-02-19 05:52:00,35.0,35.0,-100.00,SE,126,0.0,4.0,100,0.00,,,0.00,0.000000,,2013-02-19 10:52:00,
2013-02-19 06:01:00,35.0,35.0,-100.00,SE,126,0.0,4.0,100,0.00,,,0.00,0.000000,,2013-02-19 11:01:00,
2013-02-19 06:11:00,35.0,35.0,-100.00,SE,126,0.0,4.0,100,0.00,,,0.00,0.000000,,2013-02-19 11:11:00,
2013-02-19 06:42:00,34.0,34.0,-100.00,ESE,120,0.0,0.0,100,0.00,,,0.00,0.000000,,2013-02-19 11:42:00,
2013-02-19 06:52:00,34.0,34.0,-100.00,ESE,120,0.0,0.0,100,0.00,,,0.00,0.000000,,2013-02-19 11:52:00,
2013-02-19 07:02:00,34.0,34.0,-100.00,ESE,120,0.0,0.0,100,0.00,,,0.00,0.000000,,2013-02-19 12:02:00,
2013-02-19 07:12:00,34.0,34.0,-100.00,ESE,120,0.0,0.0,100,0.00,,,0.00,0.000000,,2013-02-19 12:12:00,
2013-02-19 07:42:00,37.0,37.0,-100.00,ESE,107,0.0,4.0,100,0.00,,,0.00,7.000000,,2013-02-19 12:42:00,
2013-02-19 07:53:00,37.0,37.0,-100.00,ESE,107,0.0,4.0,100,0.00,,,0.00,7.000000,,2013-02-19 12:53:00,
2013-02-19 08:02:00,37.0,37.0,-100.00,ESE,107,0.0,4.0,100,0.00,,,0.00,7.000000,,2013-02-19 13:02:00,
2013-02-19 08:11:00,37.0,37.0,-100.00,ESE,107,0.0,4.0,100,0.00,,,0.00,7.000000,,2013-02-19 13:11:00,
2013-02-19 08:42:00,44.0,44.0,-100.00,SE,130,1.0,2.0,100,0.00,,,0.00,79.000000,,2013-02-19 13:42:00,
2013-02-19 08:52:00,44.0,44.0,-100.00,SE,130,1.0,2.0,100,0.00,,,0.00,79.000000,,2013-02-19 13:52:00,
2013-02-19 09:02:00,44.0,44.0,-100.00,SE,130,1.0,2.0,100,0.00,,,0.00,79.000000,,2013-02-19 14:02:00,
2013-02-19 09:12:00,44.0,44.0,-100.00,SE,130,1.0,2.0,100,0.00,,,0.00,79.000000,,2013-02-19 14:12:00,
2013-02-19 09:42:00,58.0,58.0,-100.00,South,179,5.0,9.0,100,0.00,,,0.00,271.000000,,2013-02-19 14:42:00,
2013-02-19 09:52:00,58.0,58.0,-100.00,South,179,5.0,9.0,100,0.00,,,0.00,271.000000,,2013-02-19 14:52:00,
2013-02-19 10:42:00,60.0,52.0,-100.00,SSW,193,5.0,11.0,74,0.00,,,0.00,233.000000,,2013-02-19 15:42:00,
2013-02-19 10:52:00,60.0,52.0,-100.00,SSW,193,5.0,11.0,74,0.00,,,0.00,233.000000,,2013-02-19 15:52:00,
2013-02-19 11:02:00,60.0,52.0,-100.00,SSW,193,5.0,11.0,74,0.00,,,0.00,233.000000,,2013-02-19 16:02:00,
2013-02-19 11:11:00,60.0,52.0,-100.00,SSW,193,5.0,11.0,74,0.00,,,0.00,233.000000,,2013-02-19 16:11:00,
2013-02-19 11:42:00,62.0,53.0,-100.00,SSW,192,4.0,12.0,73,0.00,,,0.00,242.000000,,2013-02-19 16:42:00,
2013-02-19 11:52:00,62.0,53.0,-100.00,SSW,192,4.0,12.0,73,0.00,,,0.00,242.000000,,2013-02-19 16:52:00,
2013-02-19 12:01:00,62.0,53.0,-100.00,SSW,192,4.0,12.0,73,0.00,,,0.00,242.000000,,2013-02-19 17:01:00,
2013-02-19 12:11:00,62.0,53.0,-100.00,SSW,192,4.0,12.0,73,0.00,,,0.00,242.000000,,2013-02-19 17:11:00,
2013-02-19 12:42:00,61.0,53.0,-100.00,South,185,4.0,11.0,75,0.00,,,0.00,219.000000,,2013-02-19 17:42:00,
2013-02-19 12:52:00,61.0,53.0,-100.00,South,185,4.0,11.0,75,0.00,,,0.00,219.000000,,2013-02-19 17:52:00,
2013-02-19 13:02:00,61.0,53.0,-100.00,South,185,4.0,11.0,75,0.00,,,0.00,219.000000,,2013-02-19 18:02:00,
2013-02-19 13:11:00,61.0,53.0,-100.00,South,185,4.0,11.0,75,0.00,,,0.00,219.000000,,2013-02-19 18:11:00,
2013-02-19 13:42:00,57.0,54.0,-100.00,SSE,164,2.0,11.0,90,0.02,,,0.02,81.000000,,2013-02-19 18:42:00,
2013-02-19 13:52:00,57.0,54.0,-100.00,SSE,164,2.0,11.0,90,0.02,,,0.02,81.000000,,2013-02-19 18:52:00,
2013-02-19 14:01:00,57.0,54.0,-100.00,SSE,164,2.0,11.0,90,0.02,,,0.02,81.000000,,2013-02-19 19:01:00,
2013-02-19 14:11:00,57.0,54.0,-100.00,SSE,164,2.0,11.0,90,0.02,,,0.02,81.000000,,2013-02-19 19:11:00,
2013-02-19 14:42:00,57.0,55.0,-100.00,SSW,203,5.0,12.0,94,0.01,,,0.03,190.000000,,2013-02-19 19:42:00,
2013-02-19 14:52:00,57.0,55.0,-100.00,SSW,203,5.0,12.0,94,0.01,,,0.03,190.000000,,2013-02-19 19:52:00,
2013-02-19 15:02:00,57.0,55.0,-100.00,SSW,203,5.0,12.0,94,0.01,,,0.03,190.000000,,2013-02-19 20:02:00,
2013-02-19 15:12:00,57.0,55.0,-100.00,SSW,203,5.0,12.0,94,0.01,,,0.03,190.000000,,2013-02-19 20:12:00,
2013-02-19 15:42:00,58.0,54.0,-100.00,SSW,203,6.0,11.0,87,0.00,,,0.03,209.000000,,2013-02-19 20:42:00,
2013-02-19 15:52:00,58.0,54.0,-100.00,SSW,203,6.0,11.0,87,0.00,,,0.03,209.000000,,2013-02-19 20:52:00,
2013-02-19 16:02:00,58.0,54.0,-100.00,SSW,203,6.0,11.0,87,0.00,,,0.03,209.000000,,2013-02-19 21:02:00,
2013-02-19 16:11:00,58.0,54.0,-100.00,SSW,203,6.0,11.0,87,0.00,,,0.03,209.000000,,2013-02-19 21:11:00,
2013-02-19 16:42:00,58.0,54.0,-100.00,SW,222,2.0,12.0,85,0.00,,,0.03,153.000000,,2013-02-19 21:42:00,
2013-02-19 16:52:00,58.0,54.0,-100.00,SW,222,2.0,12.0,85,0.00,,,0.03,153.000000,,2013-02-19 21:52:00,
2013-02-19 17:02:00,58.0,54.0,-100.00,SW,222,2.0,12.0,85,0.00,,,0.03,153.000000,,2013-02-19 22:02:00,
2013-02-19 17:11:00,58.0,54.0,-100.00,SW,222,2.0,12.0,85,0.00,,,0.03,153.000000,,2013-02-19 22:11:00,
2013-02-19 17:42:00,59.0,51.0,-100.00,WSW,239,7.0,16.0,74,0.00,,,0.03,54.000000,,2013-02-19 22:42:00,
2013-02-19 17:52:00,59.0,51.0,-100.00,WSW,239,7.0,16.0,74,0.00,,,0.03,54.000000,,2013-02-19 22:52:00,
2013-02-19 18:01:00,59.0,51.0,-100.00,WSW,239,7.0,16.0,74,0.00,,,0.03,54.000000,,2013-02-19 23:01:00,
2013-02-19 18:11:00,59.0,51.0,-100.00,WSW,239,7.0,16.0,74,0.00,,,0.03,54.000000,,2013-02-19 23:11:00,
2013-02-19 18:42:00,57.0,50.0,-100.00,SW,231,8.0,19.0,76,0.00,,,0.03,4.000000,,2013-02-19 23:42:00,
2013-02-19 18:52:00,57.0,50.0,-100.00,SW,231,8.0,19.0,76,0.00,,,0.03,4.000000,,2013-02-19 23:52:00,
2013-02-19 19:02:00,57.0,50.0,-100.00,SW,231,8.0,19.0,76,0.00,,,0.03,4.000000,,2013-02-20 00:02:00,
2013-02-19 19:11:00,57.0,50.0,-100.00,SW,231,8.0,19.0,76,0.00,,,0.03,4.000000,,2013-02-20 00:11:00,
2013-02-19 19:42:00,57.0,54.0,-100.00,WSW,244,7.0,17.0,89,0.00,,,0.03,0.000000,,2013-02-20 00:42:00,
2013-02-19 19:52:00,57.0,54.0,-100.00,WSW,244,7.0,17.0,89,0.00,,,0.03,0.000000,,2013-02-20 00:52:00,
2013-02-19 20:02:00,57.0,54.0,-100.00,WSW,244,7.0,17.0,89,0.00,,,0.03,0.000000,,2013-02-20 01:02:00,
2013-02-19 20:11:00,57.0,54.0,-100.00,WSW,244,7.0,17.0,89,0.00,,,0.03,0.000000,,2013-02-20 01:11:00,
2013-02-19 20:42:00,58.0,54.0,-100.00,WSW,248,6.0,13.0,88,0.00,,,0.03,0.000000,,2013-02-20 01:42:00,
2013-02-19 20:52:00,58.0,54.0,-100.00,WSW,248,6.0,13.0,88,0.00,,,0.03,0.000000,,2013-02-20 01:52:00,
2013-02-19 21:02:00,58.0,54.0,-100.00,WSW,248,6.0,13.0,88,0.00,,,0.03,0.000000,,2013-02-20 02:02:00,
2013-02-19 21:11:00,58.0,54.0,-100.00,WSW,248,6.0,13.0,88,0.00,,,0.03,0.000000,,2013-02-20 02:11:00,
2013-02-19 21:42:00,56.0,52.0,-100.00,West,271,7.0,12.0,87,0.00,,,0.03,0.000000,,2013-02-20 02:42:00,
2013-02-19 21:52:00,56.0,52.0,-100.00,West,271,7.0,12.0,87,0.00,,,0.03,0.000000,,2013-02-20 02:52:00,
2013-02-19 22:02:00,56.0,52.0,-100.00,West,271,7.0,12.0,87,0.00,,,0.03,0.000000,,2013-02-20 03:02:00,
2013-02-19 22:12:00,56.0,52.0,-100.00,West,271,7.0,12.0,87,0.00,,,0.03,0.000000,,2013-02-20 03:12:00,
2013-02-19 22:42:00,53.0,46.0,-100.00,WNW,291,11.0,21.0,77,0.00,,,0.03,0.000000,,2013-02-20 03:42:00,
2013-02-19 22:52:00,53.0,46.0,-100.00,WNW,291,11.0,21.0,77,0.00,,,0.03,0.000000,,2013-02-20 03:52:00,
2013-02-19 23:01:00,53.0,46.0,-100.00,WNW,291,11.0,21.0,77,0.00,,,0.03,0.000000,,2013-02-20 04:01:00,
2013-02-19 23:11:00,53.0,46.0,-100.00,WNW,291,11.0,21.0,77,0.00,,,0.03,0.000000,,2013-02-20 04:11:00,
2013-02-19 23:42:00,51.0,44.0,-100.00,West,280,7.0,19.0,77,0.00,,,0.03,0.000000,,2013-02-20 04:42:00,
2013-02-19 23:52:00,51.0,44.0,-100.00,West,280,7.0,19.0,77,0.00,,,0.03,0.000000,,2013-02-20 04:52:00,